Hourly Data Report for July 23, 2021

KITCHENER/WATERLOO
ONTARIO
Current Station Operator: NAVCAN

43°27'39.000" N
80°22'43.000" W
321.60 m
6144239
71368
YKF

Download Data

Hourly Data (July 2021)
Hourly Data Report for July 23, 2021
TIME
LST
Temp Definition
°C
Dew Point Definition
°C
Rel Hum Definition
%
Precip. Amount Definition
mm

Wind Dir Definition
10's deg

Wind Spd Definition
km/h
Visibility Definition
km
Stn Press Definition
kPa
Hmdx Definition


Wind Chill Definition


Weather Definition


00:00 15.4 13.8 90 0.0 LegendMM 4 16.1 98.49     LegendNANA
01:00 14.3 12.8 91 0.0 32 8 16.1 98.48     LegendNANA
02:00 14.4 12.6 89 0.0 LegendMM 4 16.1 98.49     LegendNANA
03:00 11.6 11.1 97 0.0   0 16.1 98.47     LegendNANA
04:00 10.9 10.6 98 0.0 33 4 9.7 98.48     Fog
05:00 10.5 10.2 98 0.0 32 5 16.1 98.51     LegendNANA
06:00 11.9 11.4 97 0.0 34 4 16.1 98.53     LegendNANA
07:00 14.6 12.1 85 0.0 32 4 16.1 98.55     LegendNANA
08:00 18.0 13.1 73 0.0   0 16.1 98.54     LegendNANA
09:00 20.5 9.8 50 0.0 LegendMM 4 16.1 98.54     LegendNANA
10:00 22.0 10.6 48 0.0 LegendMM 5 16.1 98.51     LegendNANA
11:00 22.6 11.9 50 0.0 31 5 16.1 98.49 25   LegendNANA
12:00 23.5 12.5 50 0.0   0 16.1 98.45 26   LegendNANA
13:00 24.6 12.5 46 0.0 8 5 16.1 98.39 27   LegendNANA
14:00 25.2 12.8 45 0.0 LegendMM 8 12.9 98.35 28   LegendNANA
15:00 24.5 11.8 45 0.0 LegendMM 4 16.1 98.30 27   LegendNANA
16:00 25.3 12.0 43 0.0 18 5 14.5 98.26 28   LegendNANA
17:00 24.3 12.1 46 0.0 17 5 16.1 98.22 27   LegendNANA
18:00 22.7 14.4 59 0.0 12 9 16.1 98.18 26   LegendNANA
19:00 23.0 13.3 54 0.0 19 9 16.1 98.16 26   LegendNANA
20:00 21.2 14.2 64 0.0 17 15 16.1 98.16 25   LegendNANA
21:00 19.6 13.8 69 0.0 19 9 16.1 98.22     LegendNANA
22:00 18.7 14.2 75 0.0 20 5 16.1 98.22     LegendNANA
23:00 15.9 13.8 87 0.0 11 5 16.1 98.21     LegendNANA

Notes on Data Quality.

Legend

  • E = Estimated
  • M = Missing
  • NA = Not Available*
  • [empty] = Indicates an unobserved value
Date modified: